Year,Month,Day,Hour,Minute,Value (Times are PST for temperature in C)
2021,08,08,00,00,12.80
2021,08,08,00,01,12.80
2021,08,08,00,02,12.80
2021,08,08,00,03,12.80
2021,08,08,00,04,12.80
2021,08,08,00,05,12.80
2021,08,08,00,06,12.80
2021,08,08,00,07,12.80
2021,08,08,00,08,12.80
2021,08,08,00,09,12.80
2021,08,08,00,10,12.80
2021,08,08,00,11,12.80
2021,08,08,00,12,12.80
2021,08,08,00,13,12.80
2021,08,08,00,14,12.80
2021,08,08,00,15,12.80
2021,08,08,00,16,12.80
2021,08,08,00,17,12.80
2021,08,08,00,18,12.80
2021,08,08,00,19,12.80
2021,08,08,00,20,12.80
2021,08,08,00,21,12.80
2021,08,08,00,22,12.80
2021,08,08,00,23,12.80
2021,08,08,00,24,12.80
2021,08,08,00,25,12.80
2021,08,08,00,26,12.80
2021,08,08,00,27,12.80
2021,08,08,00,28,12.80
2021,08,08,00,29,12.80
2021,08,08,00,30,12.80
2021,08,08,00,31,12.80
2021,08,08,00,32,12.80
2021,08,08,00,33,12.80
2021,08,08,00,34,12.80
2021,08,08,00,35,12.80
2021,08,08,00,36,12.80
2021,08,08,00,37,12.70
2021,08,08,00,38,12.70
2021,08,08,00,39,12.70
2021,08,08,00,40,12.70
2021,08,08,00,41,12.70
2021,08,08,00,42,12.70
2021,08,08,00,43,12.70
2021,08,08,00,44,12.70
2021,08,08,00,45,12.70
2021,08,08,00,46,12.70
2021,08,08,00,47,12.60
2021,08,08,00,48,12.60
2021,08,08,00,49,12.60
2021,08,08,00,50,12.60
2021,08,08,00,51,12.60
2021,08,08,00,52,12.60
2021,08,08,00,53,12.60
2021,08,08,00,54,12.60
2021,08,08,00,55,12.50
2021,08,08,00,56,12.50
2021,08,08,00,57,12.50
2021,08,08,00,58,12.50
2021,08,08,00,59,12.50
2021,08,08,01,00,12.50
2021,08,08,01,01,12.50
2021,08,08,01,02,12.50
2021,08,08,01,03,12.50
2021,08,08,01,04,12.50
2021,08,08,01,05,12.50
2021,08,08,01,06,12.50
2021,08,08,01,07,12.50
2021,08,08,01,08,12.50
2021,08,08,01,09,12.50
2021,08,08,01,10,12.50
2021,08,08,01,11,12.50
2021,08,08,01,12,12.50
2021,08,08,01,13,12.60
2021,08,08,01,14,12.60
2021,08,08,01,15,12.60
2021,08,08,01,16,12.60
2021,08,08,01,17,12.60
2021,08,08,01,18,12.60
2021,08,08,01,19,12.60
2021,08,08,01,20,12.60
2021,08,08,01,21,12.60
2021,08,08,01,22,12.60
2021,08,08,01,23,12.60
2021,08,08,01,24,12.60
2021,08,08,01,25,12.60
2021,08,08,01,26,12.60
2021,08,08,01,27,12.60
2021,08,08,01,28,12.60
2021,08,08,01,29,12.60
2021,08,08,01,30,12.60
2021,08,08,01,31,12.60
2021,08,08,01,32,12.60
2021,08,08,01,33,12.60
2021,08,08,01,34,12.60
2021,08,08,01,35,12.60
2021,08,08,01,36,12.60
2021,08,08,01,37,12.60
2021,08,08,01,38,12.60
2021,08,08,01,39,12.60
2021,08,08,01,40,12.60
2021,08,08,01,41,12.60
2021,08,08,01,42,12.60
2021,08,08,01,43,12.60
2021,08,08,01,44,12.60
2021,08,08,01,45,12.60
2021,08,08,01,46,12.60
2021,08,08,01,47,12.60
2021,08,08,01,48,12.60
2021,08,08,01,49,12.60
2021,08,08,01,50,12.60
2021,08,08,01,51,12.60
2021,08,08,01,52,12.60
2021,08,08,01,53,12.60
2021,08,08,01,54,12.60
2021,08,08,01,55,12.60
2021,08,08,01,56,12.60
2021,08,08,01,57,12.60
2021,08,08,01,58,12.60
2021,08,08,01,59,12.60
2021,08,08,02,00,12.60
2021,08,08,02,01,12.60
2021,08,08,02,02,12.60
2021,08,08,02,03,12.60
2021,08,08,02,04,12.60
2021,08,08,02,05,12.60
2021,08,08,02,06,12.60
2021,08,08,02,07,12.60
2021,08,08,02,08,12.60
2021,08,08,02,09,12.60
2021,08,08,02,10,12.60
2021,08,08,02,11,12.50
2021,08,08,02,12,12.50
2021,08,08,02,13,12.50
2021,08,08,02,14,12.50
2021,08,08,02,15,12.50
2021,08,08,02,16,12.50
2021,08,08,02,17,12.50
2021,08,08,02,18,12.50
2021,08,08,02,19,12.50
2021,08,08,02,20,12.50
2021,08,08,02,21,12.40
2021,08,08,02,22,12.40
2021,08,08,02,23,12.40
2021,08,08,02,24,12.40
2021,08,08,02,25,12.40
2021,08,08,02,26,12.40
2021,08,08,02,27,12.40
2021,08,08,02,28,12.40
2021,08,08,02,29,12.40
2021,08,08,02,30,12.40
2021,08,08,02,31,12.40
2021,08,08,02,32,12.40
2021,08,08,02,33,12.40
2021,08,08,02,34,12.40
2021,08,08,02,35,12.40
2021,08,08,02,36,12.40
2021,08,08,02,37,12.40
2021,08,08,02,38,12.40
2021,08,08,02,39,12.40
2021,08,08,02,40,12.50
2021,08,08,02,41,12.50
2021,08,08,02,42,12.50
2021,08,08,02,43,12.50
2021,08,08,02,44,12.50
2021,08,08,02,45,12.50
2021,08,08,02,46,12.50
2021,08,08,02,47,12.50
2021,08,08,02,48,12.50
2021,08,08,02,49,12.50
2021,08,08,02,50,12.50
2021,08,08,02,51,12.50
2021,08,08,02,52,12.50
2021,08,08,02,53,12.50
2021,08,08,02,54,12.50
2021,08,08,02,55,12.50
2021,08,08,02,56,12.40
2021,08,08,02,57,12.40
2021,08,08,02,58,12.40
2021,08,08,02,59,12.40
2021,08,08,03,00,12.40
2021,08,08,03,01,12.40
2021,08,08,03,02,12.40
2021,08,08,03,03,12.40
2021,08,08,03,04,12.50
2021,08,08,03,05,12.50
2021,08,08,03,06,12.60
2021,08,08,03,07,12.60
2021,08,08,03,08,12.60
2021,08,08,03,09,12.60
2021,08,08,03,10,12.60
2021,08,08,03,11,12.60
2021,08,08,03,12,12.60
2021,08,08,03,13,12.60
2021,08,08,03,14,12.60
2021,08,08,03,15,12.60
2021,08,08,03,16,12.60
2021,08,08,03,17,12.60
2021,08,08,03,18,12.70
2021,08,08,03,19,12.70
2021,08,08,03,20,12.60
2021,08,08,03,21,12.60
2021,08,08,03,22,12.60
2021,08,08,03,23,12.60
2021,08,08,03,24,12.60
2021,08,08,03,25,12.60
2021,08,08,03,26,12.60
2021,08,08,03,27,12.60
2021,08,08,03,28,12.60
2021,08,08,03,29,12.60
2021,08,08,03,30,12.60
2021,08,08,03,31,12.60
2021,08,08,03,32,12.60
2021,08,08,03,33,12.60
2021,08,08,03,34,12.50
2021,08,08,03,35,12.50
2021,08,08,03,36,12.50
2021,08,08,03,37,12.50
2021,08,08,03,38,12.50
2021,08,08,03,39,12.60
2021,08,08,03,40,12.60
2021,08,08,03,41,12.60
2021,08,08,03,42,12.60
2021,08,08,03,43,12.60
2021,08,08,03,44,12.60
2021,08,08,03,45,12.60
2021,08,08,03,46,12.50
2021,08,08,03,47,12.50
2021,08,08,03,48,12.50
2021,08,08,03,49,12.50
2021,08,08,03,50,12.50
2021,08,08,03,51,12.50
2021,08,08,03,52,12.50
2021,08,08,03,53,12.40
2021,08,08,03,54,12.40
2021,08,08,03,55,12.40
2021,08,08,03,56,12.40
2021,08,08,03,57,12.40
2021,08,08,03,58,12.40
2021,08,08,03,59,12.40
2021,08,08,04,00,12.40
2021,08,08,04,01,12.40
2021,08,08,04,02,12.40
2021,08,08,04,03,12.40
2021,08,08,04,04,12.40
2021,08,08,04,05,12.40
2021,08,08,04,06,12.40
2021,08,08,04,07,12.40
2021,08,08,04,08,12.40
2021,08,08,04,09,12.40
2021,08,08,04,10,12.40
2021,08,08,04,11,12.40
2021,08,08,04,12,12.30
2021,08,08,04,13,12.30
2021,08,08,04,14,12.30
2021,08,08,04,15,12.30
2021,08,08,04,16,12.30
2021,08,08,04,17,12.30
2021,08,08,04,18,12.30
2021,08,08,04,19,12.30
2021,08,08,04,20,12.30
2021,08,08,04,21,12.30
2021,08,08,04,22,12.30
2021,08,08,04,23,12.30
2021,08,08,04,24,12.40
2021,08,08,04,25,12.30
2021,08,08,04,26,12.30
2021,08,08,04,27,12.30
2021,08,08,04,28,12.40
2021,08,08,04,29,12.30
2021,08,08,04,30,12.30
2021,08,08,04,31,12.40
2021,08,08,04,32,12.40
2021,08,08,04,33,12.40
2021,08,08,04,34,12.40
2021,08,08,04,35,12.40
2021,08,08,04,36,12.40
2021,08,08,04,37,12.40
2021,08,08,04,38,12.40
2021,08,08,04,39,12.40
2021,08,08,04,40,12.30
2021,08,08,04,41,12.30
2021,08,08,04,42,12.30
2021,08,08,04,43,12.30
2021,08,08,04,44,12.30
2021,08,08,04,45,12.30
2021,08,08,04,46,12.30
2021,08,08,04,47,12.30
2021,08,08,04,48,12.30
2021,08,08,04,49,12.30
2021,08,08,04,50,12.30
2021,08,08,04,51,12.30
2021,08,08,04,52,12.30
2021,08,08,04,53,12.30
2021,08,08,04,54,12.30
2021,08,08,04,55,12.30
2021,08,08,04,56,12.30
2021,08,08,04,57,12.30
2021,08,08,04,58,12.30
2021,08,08,04,59,12.30
2021,08,08,05,00,12.30
2021,08,08,05,01,12.30
2021,08,08,05,02,12.30
2021,08,08,05,03,12.30
2021,08,08,05,04,12.30
2021,08,08,05,05,12.30
2021,08,08,05,06,12.20
2021,08,08,05,07,12.20
2021,08,08,05,08,12.20
2021,08,08,05,09,12.20
2021,08,08,05,10,12.20
2021,08,08,05,11,12.20
2021,08,08,05,12,12.20
2021,08,08,05,13,12.20
2021,08,08,05,14,12.20
2021,08,08,05,15,12.20
2021,08,08,05,16,12.20
2021,08,08,05,17,12.20
2021,08,08,05,18,12.20
2021,08,08,05,19,12.20
2021,08,08,05,20,12.20
2021,08,08,05,21,12.20
2021,08,08,05,22,12.20
2021,08,08,05,23,12.20
2021,08,08,05,24,12.20
2021,08,08,05,25,12.20
2021,08,08,05,26,12.20
2021,08,08,05,27,12.20
2021,08,08,05,28,12.20
2021,08,08,05,29,12.20
2021,08,08,05,30,12.20
2021,08,08,05,31,12.20
2021,08,08,05,32,12.20
2021,08,08,05,33,12.20
2021,08,08,05,34,12.20
2021,08,08,05,35,12.20
2021,08,08,05,36,12.20
2021,08,08,05,37,12.20
2021,08,08,05,38,12.20
2021,08,08,05,39,12.20
2021,08,08,05,40,12.20
2021,08,08,05,41,12.20
2021,08,08,05,42,12.10
2021,08,08,05,43,12.10
2021,08,08,05,44,12.10
2021,08,08,05,45,12.10
2021,08,08,05,46,12.10
2021,08,08,05,47,12.10
2021,08,08,05,48,12.10
2021,08,08,05,49,12.10
2021,08,08,05,50,12.10
2021,08,08,05,51,12.10
2021,08,08,05,52,12.00
2021,08,08,05,53,12.00
2021,08,08,05,54,12.00
2021,08,08,05,55,12.00
2021,08,08,05,56,12.00
2021,08,08,05,57,12.00
2021,08,08,05,58,12.00
2021,08,08,05,59,12.00
2021,08,08,06,00,12.00
2021,08,08,06,01,12.00
2021,08,08,06,02,12.00
2021,08,08,06,03,12.00
2021,08,08,06,04,12.00
2021,08,08,06,05,12.00
2021,08,08,06,06,12.10
2021,08,08,06,07,12.10
2021,08,08,06,08,12.10
2021,08,08,06,09,12.10
2021,08,08,06,10,12.10
2021,08,08,06,11,12.20
2021,08,08,06,12,12.20
2021,08,08,06,13,12.20
2021,08,08,06,14,12.20
2021,08,08,06,15,12.20
2021,08,08,06,16,12.20
2021,08,08,06,17,12.20
2021,08,08,06,18,12.30
2021,08,08,06,19,12.20
2021,08,08,06,20,12.30
2021,08,08,06,21,12.30
2021,08,08,06,22,12.30
2021,08,08,06,23,12.30
2021,08,08,06,24,12.30
2021,08,08,06,25,12.30
2021,08,08,06,26,12.30
2021,08,08,06,27,12.30
2021,08,08,06,28,12.30
2021,08,08,06,29,12.30
2021,08,08,06,30,12.30
2021,08,08,06,31,12.20
2021,08,08,06,32,12.20
2021,08,08,06,33,12.20
2021,08,08,06,34,12.20
2021,08,08,06,35,12.20
2021,08,08,06,36,12.20
2021,08,08,06,37,12.20
2021,08,08,06,38,12.20
2021,08,08,06,39,12.20
2021,08,08,06,40,12.30
2021,08,08,06,41,12.30
2021,08,08,06,42,12.30
2021,08,08,06,43,12.30
2021,08,08,06,44,12.30
2021,08,08,06,45,12.30
2021,08,08,06,46,12.40
2021,08,08,06,47,12.40
2021,08,08,06,48,12.40
2021,08,08,06,49,12.40
2021,08,08,06,50,12.50
2021,08,08,06,51,12.50
2021,08,08,06,52,12.60
2021,08,08,06,53,12.60
2021,08,08,06,54,12.60
2021,08,08,06,55,12.70
2021,08,08,06,56,12.70
2021,08,08,06,57,12.70
2021,08,08,06,58,12.70
2021,08,08,06,59,12.80
2021,08,08,07,00,12.80
2021,08,08,07,01,12.80
2021,08,08,07,02,12.80
2021,08,08,07,03,12.80
2021,08,08,07,04,12.80
2021,08,08,07,05,12.80
2021,08,08,07,06,12.80
2021,08,08,07,07,12.80
2021,08,08,07,08,12.80
2021,08,08,07,09,12.80
2021,08,08,07,10,12.90
2021,08,08,07,11,12.90
2021,08,08,07,12,12.90
2021,08,08,07,13,13.00
2021,08,08,07,14,13.00
2021,08,08,07,15,13.00
2021,08,08,07,16,13.10
2021,08,08,07,17,13.10
2021,08,08,07,18,13.10
2021,08,08,07,19,13.10
2021,08,08,07,20,13.10
2021,08,08,07,21,13.20
2021,08,08,07,22,13.30
2021,08,08,07,23,13.30
2021,08,08,07,24,13.40
2021,08,08,07,25,13.40
2021,08,08,07,26,13.40
2021,08,08,07,27,13.40
2021,08,08,07,28,13.50
2021,08,08,07,29,13.50
2021,08,08,07,30,13.60
2021,08,08,07,31,13.60
2021,08,08,07,32,13.60
2021,08,08,07,33,13.70
2021,08,08,07,34,13.70
2021,08,08,07,35,13.80
2021,08,08,07,36,13.80
2021,08,08,07,37,13.90
2021,08,08,07,38,13.90
2021,08,08,07,39,13.90
2021,08,08,07,40,13.90
2021,08,08,07,41,14.00
2021,08,08,07,42,14.00
2021,08,08,07,43,14.00
2021,08,08,07,44,14.00
2021,08,08,07,45,14.10
2021,08,08,07,46,14.10
2021,08,08,07,47,14.10
2021,08,08,07,48,14.10
2021,08,08,07,49,14.20
2021,08,08,07,50,14.20
2021,08,08,07,51,14.30
2021,08,08,07,52,14.30
2021,08,08,07,53,14.30
2021,08,08,07,54,14.40
2021,08,08,07,55,14.40
2021,08,08,07,56,14.50
2021,08,08,07,57,14.50
2021,08,08,07,58,14.50
2021,08,08,07,59,14.60
2021,08,08,08,00,14.60
2021,08,08,08,01,14.70
2021,08,08,08,02,14.70
2021,08,08,08,03,14.80
2021,08,08,08,04,14.90
2021,08,08,08,05,14.90
2021,08,08,08,06,14.90
2021,08,08,08,07,15.00
2021,08,08,08,08,15.00
2021,08,08,08,09,15.10
2021,08,08,08,10,15.10
2021,08,08,08,11,15.10
2021,08,08,08,12,15.20
2021,08,08,08,13,15.20
2021,08,08,08,14,15.20
2021,08,08,08,15,15.20
2021,08,08,08,16,15.20
2021,08,08,08,17,15.30
2021,08,08,08,18,15.30
2021,08,08,08,19,15.30
2021,08,08,08,20,15.30
2021,08,08,08,21,15.40
2021,08,08,08,22,15.40
2021,08,08,08,23,15.50
2021,08,08,08,24,15.60
2021,08,08,08,25,15.60
2021,08,08,08,26,15.60
2021,08,08,08,27,15.60
2021,08,08,08,28,15.70
2021,08,08,08,29,15.70
2021,08,08,08,30,15.80
2021,08,08,08,31,15.80
2021,08,08,08,32,15.90
2021,08,08,08,33,15.90
2021,08,08,08,34,15.90
2021,08,08,08,35,16.00
2021,08,08,08,36,16.00
2021,08,08,08,37,16.00
2021,08,08,08,38,16.00
2021,08,08,08,39,16.00
2021,08,08,08,40,16.10
2021,08,08,08,41,16.10
2021,08,08,08,42,16.10
2021,08,08,08,43,16.10
2021,08,08,08,44,16.20
2021,08,08,08,45,16.20
2021,08,08,08,46,16.20
2021,08,08,08,47,16.20
2021,08,08,08,48,16.30
2021,08,08,08,49,16.30
2021,08,08,08,50,16.30
2021,08,08,08,51,16.30
2021,08,08,08,52,16.40
2021,08,08,08,53,16.40
2021,08,08,08,54,16.40
2021,08,08,08,55,16.40
2021,08,08,08,56,16.50
2021,08,08,08,57,16.50
2021,08,08,08,58,16.60
2021,08,08,08,59,16.60
2021,08,08,09,00,16.60
2021,08,08,09,01,16.60
2021,08,08,09,02,16.70
2021,08,08,09,03,16.70
2021,08,08,09,04,16.70
2021,08,08,09,05,16.80
2021,08,08,09,06,16.80
2021,08,08,09,07,16.80
2021,08,08,09,08,16.90
2021,08,08,09,09,16.90
2021,08,08,09,10,16.90
2021,08,08,09,11,16.90
2021,08,08,09,12,17.00
2021,08,08,09,13,16.90
2021,08,08,09,14,16.90
2021,08,08,09,15,16.90
2021,08,08,09,16,16.90
2021,08,08,09,17,17.00
2021,08,08,09,18,17.00
2021,08,08,09,19,17.00
2021,08,08,09,20,17.10
2021,08,08,09,21,17.10
2021,08,08,09,22,17.10
2021,08,08,09,23,17.20
2021,08,08,09,24,17.20
2021,08,08,09,25,17.20
2021,08,08,09,26,17.20
2021,08,08,09,27,17.20
2021,08,08,09,28,17.30
2021,08,08,09,29,17.30
2021,08,08,09,30,17.30
2021,08,08,09,31,17.40
2021,08,08,09,32,17.40
2021,08,08,09,33,17.40
2021,08,08,09,34,17.50
2021,08,08,09,35,17.50
2021,08,08,09,36,17.50
2021,08,08,09,37,17.50
2021,08,08,09,38,17.60
2021,08,08,09,39,17.60
2021,08,08,09,40,17.60
2021,08,08,09,41,17.60
2021,08,08,09,42,17.60
2021,08,08,09,43,17.60
2021,08,08,09,44,17.60
2021,08,08,09,45,17.70
2021,08,08,09,46,17.70
2021,08,08,09,47,17.60
2021,08,08,09,48,17.60
2021,08,08,09,49,17.50
2021,08,08,09,50,17.50
2021,08,08,09,51,17.50
2021,08,08,09,52,17.50
2021,08,08,09,53,17.50
2021,08,08,09,54,17.50
2021,08,08,09,55,17.40
2021,08,08,09,56,17.40
2021,08,08,09,57,17.40
2021,08,08,09,58,17.50
2021,08,08,09,59,17.50
2021,08,08,10,00,17.50
2021,08,08,10,01,17.60
2021,08,08,10,02,17.60
2021,08,08,10,03,17.60
2021,08,08,10,04,17.70
2021,08,08,10,05,17.70
2021,08,08,10,06,17.80
2021,08,08,10,07,17.80
2021,08,08,10,08,17.90
2021,08,08,10,09,18.00
2021,08,08,10,10,18.10
2021,08,08,10,11,18.10
2021,08,08,10,12,18.10
2021,08,08,10,13,18.10
2021,08,08,10,14,18.10
2021,08,08,10,15,18.20
2021,08,08,10,16,18.20
2021,08,08,10,17,18.20
2021,08,08,10,18,18.30
2021,08,08,10,19,18.40
2021,08,08,10,20,18.40
2021,08,08,10,21,18.50
2021,08,08,10,22,18.50
2021,08,08,10,23,18.60
2021,08,08,10,24,18.60
2021,08,08,10,25,18.60
2021,08,08,10,26,18.70
2021,08,08,10,27,18.70
2021,08,08,10,28,18.70
2021,08,08,10,29,18.70
2021,08,08,10,30,18.70
2021,08,08,10,31,18.80
2021,08,08,10,32,18.80
2021,08,08,10,33,18.90
2021,08,08,10,34,19.00
2021,08,08,10,35,19.00
2021,08,08,10,36,19.10
2021,08,08,10,37,19.10
2021,08,08,10,38,19.20
2021,08,08,10,39,19.30
2021,08,08,10,40,19.30
2021,08,08,10,41,19.30
2021,08,08,10,42,19.40
2021,08,08,10,43,19.40
2021,08,08,10,44,19.50
2021,08,08,10,45,19.60
2021,08,08,10,46,19.60
2021,08,08,10,47,19.40
2021,08,08,10,48,19.30
2021,08,08,10,49,19.30
2021,08,08,10,50,19.30
2021,08,08,10,51,19.30
2021,08,08,10,52,19.40
2021,08,08,10,53,19.50
2021,08,08,10,54,19.60
2021,08,08,10,55,19.60
2021,08,08,10,56,19.60
2021,08,08,10,57,19.50
2021,08,08,10,58,19.50
2021,08,08,10,59,19.60
2021,08,08,11,00,19.60
2021,08,08,11,01,19.60
2021,08,08,11,02,19.60
2021,08,08,11,03,19.50
2021,08,08,11,04,19.60
2021,08,08,11,05,19.60
2021,08,08,11,06,19.60
2021,08,08,11,07,19.60
2021,08,08,11,08,19.70
2021,08,08,11,09,19.80
2021,08,08,11,10,19.90
2021,08,08,11,11,19.90
2021,08,08,11,12,20.00
2021,08,08,11,13,20.10
2021,08,08,11,14,20.00
2021,08,08,11,15,20.10
2021,08,08,11,16,20.10
2021,08,08,11,17,20.00
2021,08,08,11,18,20.00
2021,08,08,11,19,20.00
2021,08,08,11,20,20.00
2021,08,08,11,21,20.00
2021,08,08,11,22,20.10
2021,08,08,11,23,20.10
2021,08,08,11,24,20.10
2021,08,08,11,25,20.10
2021,08,08,11,26,20.10
2021,08,08,11,27,20.10
2021,08,08,11,28,20.20
2021,08,08,11,29,20.20
2021,08,08,11,30,20.30
2021,08,08,11,31,20.40
2021,08,08,11,32,20.40
2021,08,08,11,33,20.40
2021,08,08,11,34,20.40
2021,08,08,11,35,20.40
2021,08,08,11,36,20.50
2021,08,08,11,37,20.50
2021,08,08,11,38,20.60
2021,08,08,11,39,20.70
2021,08,08,11,40,20.70
2021,08,08,11,41,20.80
2021,08,08,11,42,20.80
2021,08,08,11,43,20.70
2021,08,08,11,44,20.60
2021,08,08,11,45,20.60
2021,08,08,11,46,20.50
2021,08,08,11,47,20.50
2021,08,08,11,48,20.60
2021,08,08,11,49,20.60
2021,08,08,11,50,20.60
2021,08,08,11,51,20.70
2021,08,08,11,52,20.70
2021,08,08,11,53,20.80
2021,08,08,11,54,20.80
2021,08,08,11,55,20.70
2021,08,08,11,56,20.70
2021,08,08,11,57,20.60
2021,08,08,11,58,20.70
2021,08,08,11,59,20.80
2021,08,08,12,00,20.80
2021,08,08,12,01,20.80
2021,08,08,12,02,20.80
2021,08,08,12,03,20.80
2021,08,08,12,04,20.80
2021,08,08,12,05,20.90
2021,08,08,12,06,20.90
2021,08,08,12,07,21.00
2021,08,08,12,08,21.10
2021,08,08,12,09,21.10
2021,08,08,12,10,21.20
2021,08,08,12,11,21.20
2021,08,08,12,12,21.20
2021,08,08,12,13,21.20
2021,08,08,12,14,21.20
2021,08,08,12,15,21.20
2021,08,08,12,16,21.10
2021,08,08,12,17,21.00
2021,08,08,12,18,20.90
2021,08,08,12,19,20.90
2021,08,08,12,20,20.90
2021,08,08,12,21,20.90
2021,08,08,12,22,21.00
2021,08,08,12,23,21.00
2021,08,08,12,24,21.10
2021,08,08,12,25,21.10
2021,08,08,12,26,21.10
2021,08,08,12,27,21.20
2021,08,08,12,28,21.10
2021,08,08,12,29,21.10
2021,08,08,12,30,21.10
2021,08,08,12,31,21.10
2021,08,08,12,32,21.10
2021,08,08,12,33,21.10
2021,08,08,12,34,21.10
2021,08,08,12,35,21.10
2021,08,08,12,36,21.10
2021,08,08,12,37,21.10
2021,08,08,12,38,21.10
2021,08,08,12,39,21.10
2021,08,08,12,40,21.20
2021,08,08,12,41,21.30
2021,08,08,12,42,21.40
2021,08,08,12,43,21.50
2021,08,08,12,44,21.50
2021,08,08,12,45,21.50
2021,08,08,12,46,21.60
2021,08,08,12,47,21.50
2021,08,08,12,48,21.60
2021,08,08,12,49,21.60
2021,08,08,12,50,21.60
2021,08,08,12,51,21.70
2021,08,08,12,52,21.80
2021,08,08,12,53,21.80
2021,08,08,12,54,21.80
2021,08,08,12,55,21.80
2021,08,08,12,56,21.80
2021,08,08,12,57,21.80
2021,08,08,12,58,21.80
2021,08,08,12,59,21.70
2021,08,08,13,00,21.70
2021,08,08,13,01,21.70
2021,08,08,13,02,21.70
2021,08,08,13,03,21.70
2021,08,08,13,04,21.70
2021,08,08,13,05,21.80
2021,08,08,13,06,21.80
2021,08,08,13,07,21.90
2021,08,08,13,08,21.90
2021,08,08,13,09,22.10
2021,08,08,13,10,22.10
2021,08,08,13,11,22.20
2021,08,08,13,12,22.20
2021,08,08,13,13,22.20
2021,08,08,13,14,22.30
2021,08,08,13,15,22.30
2021,08,08,13,16,22.30
2021,08,08,13,17,22.30
2021,08,08,13,18,22.30
2021,08,08,13,19,22.30
2021,08,08,13,20,22.30
2021,08,08,13,21,22.30
2021,08,08,13,22,22.30
2021,08,08,13,23,22.30
2021,08,08,13,24,22.30
2021,08,08,13,25,22.20
2021,08,08,13,26,22.20
2021,08,08,13,27,22.20
2021,08,08,13,28,22.10
2021,08,08,13,29,22.10
2021,08,08,13,30,22.00
2021,08,08,13,31,22.00
2021,08,08,13,32,22.00
2021,08,08,13,33,22.00
2021,08,08,13,34,22.10
2021,08,08,13,35,22.10
2021,08,08,13,36,22.20
2021,08,08,13,37,22.20
2021,08,08,13,38,22.30
2021,08,08,13,39,22.30
2021,08,08,13,40,22.30
2021,08,08,13,41,22.30
2021,08,08,13,42,22.30
2021,08,08,13,43,22.30
2021,08,08,13,44,22.40
2021,08,08,13,45,22.40
2021,08,08,13,46,22.60
2021,08,08,13,47,22.60
2021,08,08,13,48,22.60
2021,08,08,13,49,22.60
2021,08,08,13,50,22.60
2021,08,08,13,51,22.50
2021,08,08,13,52,22.60
2021,08,08,13,53,22.60
2021,08,08,13,54,22.60
2021,08,08,13,55,22.70
2021,08,08,13,56,22.70
2021,08,08,13,57,22.60
2021,08,08,13,58,22.60
2021,08,08,13,59,22.60
2021,08,08,14,00,22.70
2021,08,08,14,01,22.70
2021,08,08,14,02,22.70
2021,08,08,14,03,22.80
2021,08,08,14,04,22.90
2021,08,08,14,05,23.00
2021,08,08,14,06,23.20
2021,08,08,14,07,23.20
2021,08,08,14,08,23.10
2021,08,08,14,09,23.20
2021,08,08,14,10,23.20
2021,08,08,14,11,23.10
2021,08,08,14,12,23.00
2021,08,08,14,13,23.00
2021,08,08,14,14,23.10
2021,08,08,14,15,23.20
2021,08,08,14,16,23.10
2021,08,08,14,17,23.00
2021,08,08,14,18,22.90
2021,08,08,14,19,22.80
2021,08,08,14,20,22.80
2021,08,08,14,21,22.80
2021,08,08,14,22,22.80
2021,08,08,14,23,22.90
2021,08,08,14,24,23.00
2021,08,08,14,25,23.00
2021,08,08,14,26,22.90
2021,08,08,14,27,22.90
2021,08,08,14,28,22.80
2021,08,08,14,29,22.80
2021,08,08,14,30,22.80
2021,08,08,14,31,22.80
2021,08,08,14,32,22.80
2021,08,08,14,33,22.70
2021,08,08,14,34,22.80
2021,08,08,14,35,22.70
2021,08,08,14,36,22.70
2021,08,08,14,37,22.60
2021,08,08,14,38,22.60
2021,08,08,14,39,22.50
2021,08,08,14,40,22.50
2021,08,08,14,41,22.60
2021,08,08,14,42,22.60
2021,08,08,14,43,22.70
2021,08,08,14,44,22.80
2021,08,08,14,45,22.80
2021,08,08,14,46,22.60
2021,08,08,14,47,22.50
2021,08,08,14,48,22.30
2021,08,08,14,49,22.20
2021,08,08,14,50,22.20
2021,08,08,14,51,22.30
2021,08,08,14,52,22.30
2021,08,08,14,53,22.30
2021,08,08,14,54,22.40
2021,08,08,14,55,22.50
2021,08,08,14,56,22.50
2021,08,08,14,57,22.50
2021,08,08,14,58,22.40
2021,08,08,14,59,22.40
2021,08,08,15,00,22.40
2021,08,08,15,01,22.40
2021,08,08,15,02,22.50
2021,08,08,15,03,22.60
2021,08,08,15,04,22.60
2021,08,08,15,05,22.60
2021,08,08,15,06,22.50
2021,08,08,15,07,22.40
2021,08,08,15,08,22.40
2021,08,08,15,09,22.30
2021,08,08,15,10,22.30
2021,08,08,15,11,22.30
2021,08,08,15,12,22.30
2021,08,08,15,13,22.20
2021,08,08,15,14,22.20
2021,08,08,15,15,22.20
2021,08,08,15,16,22.20
2021,08,08,15,17,22.20
2021,08,08,15,18,22.20
2021,08,08,15,19,22.20
2021,08,08,15,20,22.20
2021,08,08,15,21,22.30
2021,08,08,15,22,22.30
2021,08,08,15,23,22.30
2021,08,08,15,24,22.40
2021,08,08,15,25,22.30
2021,08,08,15,26,22.10
2021,08,08,15,27,22.00
2021,08,08,15,28,21.90
2021,08,08,15,29,21.90
2021,08,08,15,30,21.80
2021,08,08,15,31,21.80
2021,08,08,15,32,21.80
2021,08,08,15,33,21.80
2021,08,08,15,34,21.80
2021,08,08,15,35,21.90
2021,08,08,15,36,22.00
2021,08,08,15,37,22.00
2021,08,08,15,38,22.00
2021,08,08,15,39,21.90
2021,08,08,15,40,21.80
2021,08,08,15,41,21.80
2021,08,08,15,42,21.70
2021,08,08,15,43,21.70
2021,08,08,15,44,21.70
2021,08,08,15,45,21.70
2021,08,08,15,46,21.60
2021,08,08,15,47,21.60
2021,08,08,15,48,21.60
2021,08,08,15,49,21.60
2021,08,08,15,50,21.70
2021,08,08,15,51,21.70
2021,08,08,15,52,21.80
2021,08,08,15,53,21.80
2021,08,08,15,54,21.80
2021,08,08,15,55,21.80
2021,08,08,15,56,21.90
2021,08,08,15,57,21.90
2021,08,08,15,58,22.00
2021,08,08,15,59,22.10
2021,08,08,16,00,22.10
2021,08,08,16,01,22.20
2021,08,08,16,02,22.30
2021,08,08,16,03,22.30
2021,08,08,16,04,22.30
2021,08,08,16,05,22.20
2021,08,08,16,06,22.20
2021,08,08,16,07,22.20
2021,08,08,16,08,22.10
2021,08,08,16,09,22.10
2021,08,08,16,10,22.00
2021,08,08,16,11,22.00
2021,08,08,16,12,22.00
2021,08,08,16,13,22.00
2021,08,08,16,14,22.10
2021,08,08,16,15,22.20
2021,08,08,16,16,22.30
2021,08,08,16,17,22.30
2021,08,08,16,18,22.30
2021,08,08,16,19,22.30
2021,08,08,16,20,22.40
2021,08,08,16,21,22.30
2021,08,08,16,22,22.30
2021,08,08,16,23,22.20
2021,08,08,16,24,22.20
2021,08,08,16,25,22.10
2021,08,08,16,26,22.00
2021,08,08,16,27,22.10
2021,08,08,16,28,22.10
2021,08,08,16,29,22.10
2021,08,08,16,30,22.00
2021,08,08,16,31,22.00
2021,08,08,16,32,21.90
2021,08,08,16,33,21.80
2021,08,08,16,34,21.80
2021,08,08,16,35,21.80
2021,08,08,16,36,21.90
2021,08,08,16,37,21.90
2021,08,08,16,38,22.00
2021,08,08,16,39,22.00
2021,08,08,16,40,22.10
2021,08,08,16,41,22.20
2021,08,08,16,42,22.30
2021,08,08,16,43,22.30
2021,08,08,16,44,22.40
2021,08,08,16,45,22.40
2021,08,08,16,46,22.50
2021,08,08,16,47,22.50
2021,08,08,16,48,22.40
2021,08,08,16,49,22.40
2021,08,08,16,50,22.40
2021,08,08,16,51,22.40
2021,08,08,16,52,22.40
2021,08,08,16,53,22.30
2021,08,08,16,54,22.30
2021,08,08,16,55,22.30
2021,08,08,16,56,22.10
2021,08,08,16,57,22.00
2021,08,08,16,58,22.00
2021,08,08,16,59,22.00
2021,08,08,17,00,22.00
2021,08,08,17,01,22.10
2021,08,08,17,02,22.30
2021,08,08,17,03,22.30
2021,08,08,17,04,22.40
2021,08,08,17,05,22.50
2021,08,08,17,06,22.60
2021,08,08,17,07,22.60
2021,08,08,17,08,22.60
2021,08,08,17,09,22.60
2021,08,08,17,10,22.60
2021,08,08,17,11,22.60
2021,08,08,17,12,22.60
2021,08,08,17,13,22.60
2021,08,08,17,14,22.60
2021,08,08,17,15,22.70
2021,08,08,17,16,22.70
2021,08,08,17,17,22.70
2021,08,08,17,18,22.60
2021,08,08,17,19,22.50